sat.trackr.live / text

‹ back to catalog

STARLINK-5975

NORAD 57372 · 2023-099AW

PAYLOAD ACTIVE UNKNOWN

§ Identity

Operator
Country
US
Launch date
2023-07-16
Launch site
AFETR
Launch vehicle
Mass (kg)
RCS (m²)

Purposes: comms

External: N2YO · Heavens-Above · Gunter

§ Orbital elements

Epoch: 2026-05-24T11:00:20.625984Z

Period
94.27 min
Inclination
43.0011°
Eccentricity
0.0001028
Mean motion
15.27576980 rev/d
Perigee alt
482.4 km
Apogee alt
483.8 km
Semi-major
6,861.2 km
B*
9.3981e-6
RAAN
174.0628°
Arg perigee
290.2249°
Mean anomaly
69.8492°
Rev number
15,778

§ Raw data

STARLINK-59751 57372U 23099AW  26144.45857206 -.00000003  00000+0  93981-5 0  99992 57372  43.0011 174.0628 0001028 290.2249  69.8492 15.27576980157788

JSON: /api/v1/satellites/57372 · /tle

For live sub-satellite position, see the globe view (requires WebGL).

§ Visibility from observer

Set your observer location to see the next 7 days of passes ≥ 10°. The values pass through the URL so the page stays shareable.

No JS? Fill the form by hand. The geolocation button needs JavaScript.